ACA103 KEWR-CYYZ

Flight info

Callsign ACA103
Flight time 1h 18m
Altitude 38000
Route GAYEL Q818 WOZEE LINNG3
Aircraft A319/M-SDE3FGHIRWY/LB1

Departure

Time 2026-05-07 02:39
Airport Newark Liberty International Airport (KEWR)

Arrival

Time 2026-05-07 03:57
Airport Toronto Pearson International Airport (CYYZ)
Time Latitude Longitude Altitude Speed Heading
2026-05-07 02:00 40.68426 -74.18272 20 ft 0 kts 203°
2026-05-07 02:28 40.68434 -74.18267 -8 ft 4 kts 203°
2026-05-07 02:28 40.68459 -74.18253 21 ft 4 kts 203°
2026-05-07 02:29 40.68484 -74.18243 21 ft 4 kts 180°
2026-05-07 02:29 40.68505 -74.18251 22 ft 4 kts 116°
2026-05-07 02:29 40.68508 -74.18265 23 ft 1 kts 92°
2026-05-07 02:29 40.68508 -74.18267 23 ft 0 kts 92°
2026-05-07 02:32 40.68508 -74.18265 20 ft 1 kts 92°
2026-05-07 02:32 40.68508 -74.18256 20 ft 1 kts 92°
2026-05-07 02:32 40.68507 -74.18236 20 ft 3 kts 92°
2026-05-07 02:32 40.68506 -74.18191 20 ft 7 kts 92°
2026-05-07 02:33 40.68503 -74.18117 20 ft 10 kts 92°
2026-05-07 02:33 40.68493 -74.18025 20 ft 10 kts 126°
2026-05-07 02:33 40.68428 -74.17958 20 ft 14 kts 153°
2026-05-07 02:33 40.68362 -74.17855 20 ft 17 kts 116°
2026-05-07 02:34 40.68293 -74.17718 20 ft 20 kts 143°
2026-05-07 02:34 40.68189 -74.17693 20 ft 15 kts 200°
2026-05-07 02:34 40.68084 -74.17759 20 ft 18 kts 205°
2026-05-07 02:34 40.67959 -74.17837 21 ft 21 kts 205°
2026-05-07 02:35 40.67840 -74.17915 21 ft 16 kts 207°
2026-05-07 02:35 40.67731 -74.17984 20 ft 19 kts 205°
2026-05-07 02:35 40.67615 -74.18050 20 ft 12 kts 179°
2026-05-07 02:35 40.67599 -74.18038 20 ft 0 kts 137°
2026-05-07 02:37 40.67586 -74.18021 20 ft 4 kts 132°
2026-05-07 02:37 40.67564 -74.17976 21 ft 7 kts 114°
2026-05-07 02:38 40.67580 -74.17914 22 ft 8 kts 12°
2026-05-07 02:38 40.67642 -74.17878 20 ft 12 kts 26°
2026-05-07 02:38 40.67869 -74.17738 19 ft 80 kts 25°
2026-05-07 02:38 40.68643 -74.17245 22 ft 162 kts 26°
2026-05-07 02:39 40.69740 -74.16510 632 ft 183 kts 24°
2026-05-07 02:39 40.70874 -74.15643 1417 ft 190 kts 27°
2026-05-07 02:39 40.71911 -74.14568 2025 ft 192 kts 39°
2026-05-07 02:39 40.72914 -74.13228 2421 ft 219 kts 42°
2026-05-07 02:40 40.74026 -74.11695 2910 ft 244 kts 42°
2026-05-07 02:40 40.75298 -74.10057 3445 ft 267 kts 33°
2026-05-07 02:40 40.77043 -74.09234 4115 ft 270 kts 354°
2026-05-07 02:40 40.78770 -74.09868 4981 ft 260 kts 318°
2026-05-07 02:41 40.79868 -74.11637 5980 ft 246 kts 286°
2026-05-07 02:41 40.80193 -74.13791 7036 ft 237 kts 266°
2026-05-07 02:41 40.79707 -74.15816 8039 ft 238 kts 234°
2026-05-07 02:41 40.78303 -74.17039 9030 ft 257 kts 202°
2026-05-07 02:42 40.76452 -74.17077 10054 ft 273 kts 184°
2026-05-07 02:42 40.74559 -74.17202 10548 ft 276 kts 205°
2026-05-07 02:42 40.73015 -74.18642 11016 ft 277 kts 236°
2026-05-07 02:42 40.72386 -74.21020 11813 ft 283 kts 265°
2026-05-07 02:43 40.72861 -74.23589 12669 ft 301 kts 289°
2026-05-07 02:43 40.73874 -74.26032 13533 ft 306 kts 291°
2026-05-07 02:43 40.74908 -74.28499 14286 ft 309 kts 291°
2026-05-07 02:43 40.75952 -74.30992 15025 ft 312 kts 291°
2026-05-07 02:44 40.77006 -74.33511 15771 ft 315 kts 291°
2026-05-07 02:44 40.78069 -74.36059 16542 ft 318 kts 291°
2026-05-07 02:44 40.79138 -74.38624 17334 ft 320 kts 291°
2026-05-07 02:44 40.80212 -74.41205 18098 ft 322 kts 292°
2026-05-07 02:45 40.81293 -74.43808 18775 ft 324 kts 291°
2026-05-07 02:45 40.82378 -74.46420 19507 ft 324 kts 291°
2026-05-07 02:45 40.83419 -74.49044 20258 ft 319 kts 285°
2026-05-07 02:45 40.83894 -74.51844 20989 ft 310 kts 271°
2026-05-07 02:46 40.84111 -74.54677 21772 ft 309 kts 272°
2026-05-07 02:46 40.84377 -74.57492 22536 ft 309 kts 273°
2026-05-07 02:46 40.84663 -74.60303 23292 ft 308 kts 274°
2026-05-07 02:46 40.84952 -74.63106 23933 ft 308 kts 274°
2026-05-07 02:47 40.85235 -74.65916 24491 ft 309 kts 273°
2026-05-07 02:47 40.85513 -74.68727 25013 ft 310 kts 274°
2026-05-07 02:47 40.86162 -74.71488 25488 ft 324 kts 290°
2026-05-07 02:47 40.87641 -74.73861 25985 ft 352 kts 309°
2026-05-07 02:48 40.89945 -74.75357 26466 ft 393 kts 332°
2026-05-07 02:48 40.92767 -74.75563 26942 ft 436 kts 353°
2026-05-07 02:48 40.95806 -74.74683 27417 ft 449 kts 358°
2026-05-07 02:48 40.98796 -74.74399 27855 ft 413 kts 337°
2026-05-07 02:49 41.01368 -74.75492 28282 ft 371 kts 314°
2026-05-07 02:49 41.03227 -74.77626 28718 ft 347 kts 300°
2026-05-07 02:49 41.04858 -74.79992 29174 ft 352 kts 302°
2026-05-07 02:49 41.06722 -74.82179 29632 ft 364 kts 308°
2026-05-07 02:50 41.08798 -74.84172 30054 ft 372 kts 312°
2026-05-07 02:50 41.10990 -74.86050 30417 ft 377 kts 314°
2026-05-07 02:50 41.13227 -74.87890 30765 ft 379 kts 314°
2026-05-07 02:50 41.15465 -74.89748 31134 ft 379 kts 313°
2026-05-07 02:51 41.16480 -74.90607 31301 ft 379 kts 313°
2026-05-07 02:51 41.18695 -74.92506 31641 ft 379 kts 312°
2026-05-07 02:51 41.20886 -74.94448 32052 ft 379 kts 311°
2026-05-07 02:51 41.23067 -74.96421 32386 ft 380 kts 311°
2026-05-07 02:52 41.25245 -74.98406 32831 ft 378 kts 311°
2026-05-07 02:52 41.27406 -75.00371 33325 ft 375 kts 311°
2026-05-07 02:52 41.29556 -75.02317 33858 ft 372 kts 311°
2026-05-07 02:52 41.31693 -75.04244 34319 ft 370 kts 311°
2026-05-07 02:53 41.33820 -75.06157 34747 ft 368 kts 311°
2026-05-07 02:53 41.35936 -75.08063 35160 ft 366 kts 310°
2026-05-07 02:53 41.38039 -75.09961 35547 ft 364 kts 310°
2026-05-07 02:53 41.40132 -75.11854 35909 ft 363 kts 310°
2026-05-07 02:54 41.42216 -75.13747 36237 ft 362 kts 310°
2026-05-07 02:54 41.44293 -75.15639 36643 ft 361 kts 310°
2026-05-07 02:54 41.46364 -75.17529 36939 ft 361 kts 310°
2026-05-07 02:54 41.48439 -75.19423 37230 ft 361 kts 310°
2026-05-07 02:55 41.50513 -75.21308 37504 ft 361 kts 310°
2026-05-07 02:55 41.52588 -75.23191 37786 ft 361 kts 310°
2026-05-07 02:55 41.54668 -75.25082 37907 ft 360 kts 310°
2026-05-07 02:55 41.56732 -75.26954 37923 ft 358 kts 310°
2026-05-07 02:56 41.60808 -75.30658 37927 ft 356 kts 310°
2026-05-07 02:56 41.64891 -75.34387 37926 ft 355 kts 310°
2026-05-07 02:57 41.68970 -75.38124 37939 ft 356 kts 310°
2026-05-07 02:57 41.73067 -75.41881 37929 ft 357 kts 310°
2026-05-07 02:58 41.77166 -75.45645 37947 ft 357 kts 310°
2026-05-07 02:58 41.81265 -75.49408 37937 ft 357 kts 309°
2026-05-07 02:59 41.85362 -75.53177 37933 ft 357 kts 309°
2026-05-07 02:59 41.89456 -75.56955 37931 ft 357 kts 309°
2026-05-07 03:00 41.92638 -75.59950 37922 ft 350 kts 306°
2026-05-07 03:00 41.94305 -75.62152 37927 ft 332 kts 296°
2026-05-07 03:00 41.95562 -75.64671 37694 ft 319 kts 289°
2026-05-07 03:01 41.96649 -75.67268 37022 ft 319 kts 289°
2026-05-07 03:01 41.97727 -75.69879 36324 ft 320 kts 288°
2026-05-07 03:01 41.98804 -75.72499 35657 ft 320 kts 288°
2026-05-07 03:01 41.99885 -75.75122 34973 ft 321 kts 288°
2026-05-07 03:02 42.00972 -75.77751 34322 ft 321 kts 288°
2026-05-07 03:02 42.02058 -75.80371 34031 ft 321 kts 288°
2026-05-07 03:02 42.03146 -75.82999 33918 ft 322 kts 288°
2026-05-07 03:02 42.04235 -75.85635 33935 ft 323 kts 288°
2026-05-07 03:03 42.06418 -75.90923 33933 ft 323 kts 288°
2026-05-07 03:03 42.08599 -75.96214 33936 ft 323 kts 288°
2026-05-07 03:04 42.10774 -76.01515 33939 ft 323 kts 288°
2026-05-07 03:04 42.12952 -76.06817 33939 ft 324 kts 288°
2026-05-07 03:05 42.15135 -76.12121 33941 ft 324 kts 288°
2026-05-07 03:05 42.17007 -76.17544 33945 ft 317 kts 283°
2026-05-07 03:06 42.18759 -76.23009 33963 ft 318 kts 283°
2026-05-07 03:06 42.20517 -76.28483 33943 ft 319 kts 283°
2026-05-07 03:07 42.22277 -76.33978 33943 ft 319 kts 283°
2026-05-07 03:07 42.24037 -76.39478 33954 ft 319 kts 283°
2026-05-07 03:08 42.25797 -76.44983 33951 ft 319 kts 283°
2026-05-07 03:08 42.27545 -76.50495 34002 ft 320 kts 283°
2026-05-07 03:09 42.29296 -76.56004 33954 ft 318 kts 283°
2026-05-07 03:09 42.31038 -76.61494 33955 ft 318 kts 283°
2026-05-07 03:10 42.32775 -76.66980 33959 ft 317 kts 283°
2026-05-07 03:10 42.34489 -76.72435 33960 ft 317 kts 283°
2026-05-07 03:11 42.36214 -76.77922 33964 ft 317 kts 283°
2026-05-07 03:11 42.37921 -76.83308 33963 ft 303 kts 282°
2026-05-07 03:12 42.38743 -76.85908 33968 ft 299 kts 282°
2026-05-07 03:12 42.39553 -76.88488 33980 ft 297 kts 282°
2026-05-07 03:12 42.40355 -76.91055 33973 ft 296 kts 282°
2026-05-07 03:12 42.41155 -76.93624 33967 ft 296 kts 282°
2026-05-07 03:13 42.41951 -76.96190 33973 ft 296 kts 282°
2026-05-07 03:13 42.42750 -76.98756 33972 ft 296 kts 282°
2026-05-07 03:13 42.43544 -77.01293 33970 ft 296 kts 282°
2026-05-07 03:13 42.44345 -77.03858 33971 ft 296 kts 282°
2026-05-07 03:14 42.45146 -77.06422 33970 ft 296 kts 282°
2026-05-07 03:14 42.45946 -77.08987 33975 ft 296 kts 282°
2026-05-07 03:14 42.47541 -77.14120 33974 ft 296 kts 282°
2026-05-07 03:15 42.48337 -77.16687 33971 ft 295 kts 282°
2026-05-07 03:15 42.49131 -77.19247 33967 ft 295 kts 282°
2026-05-07 03:15 42.49922 -77.21807 33968 ft 295 kts 282°
2026-05-07 03:15 42.50714 -77.24374 34016 ft 295 kts 282°
2026-05-07 03:16 42.51508 -77.26941 34003 ft 296 kts 282°
2026-05-07 03:16 42.52302 -77.29518 34020 ft 297 kts 282°
2026-05-07 03:16 42.53096 -77.32111 34000 ft 298 kts 282°
2026-05-07 03:16 42.53893 -77.34714 33991 ft 299 kts 282°
2026-05-07 03:17 42.54692 -77.37318 33987 ft 299 kts 282°
2026-05-07 03:17 42.55496 -77.39929 33994 ft 300 kts 282°
2026-05-07 03:17 42.56298 -77.42536 33987 ft 300 kts 282°
2026-05-07 03:17 42.57100 -77.45146 33988 ft 300 kts 282°
2026-05-07 03:18 42.57901 -77.47763 33983 ft 300 kts 282°
2026-05-07 03:18 42.59503 -77.52996 33983 ft 301 kts 282°
2026-05-07 03:18 42.60306 -77.55620 33977 ft 300 kts 282°
2026-05-07 03:19 42.61105 -77.58242 33978 ft 300 kts 282°
2026-05-07 03:19 42.62706 -77.63482 33990 ft 301 kts 282°
2026-05-07 03:20 42.64303 -77.68746 33981 ft 302 kts 282°
2026-05-07 03:20 42.65909 -77.74025 33975 ft 303 kts 282°
2026-05-07 03:21 42.67447 -77.79336 33978 ft 301 kts 280°
2026-05-07 03:21 42.68909 -77.84625 33996 ft 301 kts 280°
2026-05-07 03:22 42.70377 -77.89953 33993 ft 301 kts 280°
2026-05-07 03:22 42.71858 -77.95287 33994 ft 302 kts 280°
2026-05-07 03:23 42.73343 -78.00631 34007 ft 302 kts 280°
2026-05-07 03:23 42.74724 -78.05605 33996 ft 303 kts 280°
2026-05-07 03:24 42.76214 -78.10982 34000 ft 304 kts 280°
2026-05-07 03:24 42.77705 -78.16375 33998 ft 304 kts 280°
2026-05-07 03:25 42.79190 -78.21768 33998 ft 304 kts 280°
2026-05-07 03:25 42.80672 -78.27170 33993 ft 305 kts 280°
2026-05-07 03:25 42.81414 -78.29862 33525 ft 303 kts 280°
2026-05-07 03:26 42.82155 -78.32558 32751 ft 305 kts 280°
2026-05-07 03:26 42.82900 -78.35284 31995 ft 308 kts 280°
2026-05-07 03:26 42.83641 -78.38006 31445 ft 306 kts 280°
2026-05-07 03:26 42.84381 -78.40713 30896 ft 306 kts 281°
2026-05-07 03:27 42.85129 -78.43454 30157 ft 311 kts 281°
2026-05-07 03:27 42.85882 -78.46224 29427 ft 312 kts 282°
2026-05-07 03:27 42.86640 -78.49002 28766 ft 313 kts 282°
2026-05-07 03:27 42.87397 -78.51778 28148 ft 312 kts 282°
2026-05-07 03:28 42.88153 -78.54551 27552 ft 312 kts 282°
2026-05-07 03:28 42.88908 -78.57325 26983 ft 312 kts 282°
2026-05-07 03:28 42.89661 -78.60098 26444 ft 312 kts 283°
2026-05-07 03:28 42.90410 -78.62869 25912 ft 312 kts 283°
2026-05-07 03:29 42.91158 -78.65643 25379 ft 312 kts 283°
2026-05-07 03:29 42.91905 -78.68417 24857 ft 312 kts 283°
2026-05-07 03:29 42.92658 -78.71202 24283 ft 314 kts 284°
2026-05-07 03:29 42.93542 -78.73949 23733 ft 322 kts 293°
2026-05-07 03:30 42.94909 -78.76426 23148 ft 329 kts 301°
2026-05-07 03:30 42.96366 -78.78824 22603 ft 327 kts 301°
2026-05-07 03:30 42.97815 -78.81214 22096 ft 325 kts 301°
2026-05-07 03:30 42.99246 -78.83580 21607 ft 322 kts 301°
2026-05-07 03:31 43.00667 -78.85930 21137 ft 319 kts 301°
2026-05-07 03:31 43.02072 -78.88266 20673 ft 317 kts 301°
2026-05-07 03:31 43.03465 -78.90584 20219 ft 314 kts 301°
2026-05-07 03:31 43.04850 -78.92885 19777 ft 312 kts 302°
2026-05-07 03:32 43.06226 -78.95165 19338 ft 310 kts 302°
2026-05-07 03:32 43.07595 -78.97435 18916 ft 308 kts 302°
2026-05-07 03:32 43.08949 -78.99688 18500 ft 306 kts 302°
2026-05-07 03:32 43.10289 -79.01928 18071 ft 304 kts 302°
2026-05-07 03:33 43.11626 -79.04167 17550 ft 304 kts 301°
2026-05-07 03:33 43.12963 -79.06411 17091 ft 303 kts 301°
2026-05-07 03:33 43.14294 -79.08641 16666 ft 302 kts 302°
2026-05-07 03:33 43.15622 -79.10862 16218 ft 301 kts 302°
2026-05-07 03:34 43.16942 -79.13069 15821 ft 299 kts 302°
2026-05-07 03:34 43.18255 -79.15262 15418 ft 297 kts 302°
2026-05-07 03:34 43.19560 -79.17446 15018 ft 295 kts 302°
2026-05-07 03:34 43.20855 -79.19613 14630 ft 293 kts 303°
2026-05-07 03:35 43.22142 -79.21772 14248 ft 291 kts 303°
2026-05-07 03:35 43.23419 -79.23917 13875 ft 290 kts 303°
2026-05-07 03:35 43.24689 -79.26058 13540 ft 289 kts 303°
2026-05-07 03:35 43.25956 -79.28199 13259 ft 289 kts 303°
2026-05-07 03:36 43.27223 -79.30337 13003 ft 288 kts 303°
2026-05-07 03:36 43.28486 -79.32463 12741 ft 288 kts 303°
2026-05-07 03:36 43.29795 -79.34543 12470 ft 290 kts 310°
2026-05-07 03:36 43.31435 -79.36199 12207 ft 297 kts 325°
2026-05-07 03:37 43.33291 -79.37404 11949 ft 298 kts 329°
2026-05-07 03:37 43.35152 -79.38589 11701 ft 292 kts 328°
2026-05-07 03:37 43.36994 -79.39768 11441 ft 285 kts 328°
2026-05-07 03:37 43.38753 -79.40894 11190 ft 281 kts 328°
2026-05-07 03:38 43.40518 -79.42028 10939 ft 279 kts 329°
2026-05-07 03:38 43.42286 -79.43171 10405 ft 284 kts 329°
2026-05-07 03:38 43.44066 -79.44322 10091 ft 280 kts 330°
2026-05-07 03:38 43.45825 -79.45453 9683 ft 278 kts 330°
2026-05-07 03:39 43.47568 -79.46575 9193 ft 275 kts 330°
2026-05-07 03:39 43.49299 -79.47694 8511 ft 273 kts 330°
2026-05-07 03:39 43.50963 -79.48765 8278 ft 254 kts 330°
2026-05-07 03:39 43.52505 -79.49751 8159 ft 237 kts 330°
2026-05-07 03:40 43.53967 -79.50689 8054 ft 225 kts 329°
2026-05-07 03:40 43.55351 -79.51580 7941 ft 215 kts 329°
2026-05-07 03:40 43.56674 -79.52431 7792 ft 205 kts 329°
2026-05-07 03:40 43.57981 -79.53160 7662 ft 204 kts 341°
2026-05-07 03:41 43.59410 -79.53242 7527 ft 212 kts
2026-05-07 03:41 43.60794 -79.52528 7389 ft 215 kts 26°
2026-05-07 03:41 43.61905 -79.51139 7263 ft 215 kts 40°
2026-05-07 03:41 43.62911 -79.49653 7125 ft 210 kts 40°
2026-05-07 03:42 43.63905 -79.48198 6999 ft 207 kts 39°
2026-05-07 03:42 43.64895 -79.46756 6875 ft 206 kts 39°
2026-05-07 03:42 43.65881 -79.45321 6748 ft 206 kts 39°
2026-05-07 03:42 43.66864 -79.43888 6624 ft 205 kts 39°
2026-05-07 03:43 43.67841 -79.42465 6496 ft 204 kts 39°
2026-05-07 03:43 43.68808 -79.41046 6374 ft 201 kts 39°
2026-05-07 03:43 43.69733 -79.39681 6267 ft 191 kts 39°
2026-05-07 03:43 43.70622 -79.38372 6128 ft 183 kts 39°
2026-05-07 03:44 43.71472 -79.37125 6014 ft 174 kts 38°
2026-05-07 03:44 43.72276 -79.35945 5926 ft 161 kts 38°
2026-05-07 03:44 43.72998 -79.34878 5832 ft 146 kts 36°
2026-05-07 03:44 43.73687 -79.33872 5744 ft 143 kts 36°
2026-05-07 03:45 43.74141 -79.33212 5675 ft 142 kts 36°
2026-05-07 03:45 43.75053 -79.31890 5573 ft 142 kts 36°
2026-05-07 03:45 43.75508 -79.31228 5448 ft 140 kts 36°
2026-05-07 03:45 43.76169 -79.30265 5150 ft 140 kts 36°
2026-05-07 03:46 43.76845 -79.29276 4842 ft 139 kts 36°
2026-05-07 03:46 43.77499 -79.28319 4546 ft 138 kts 37°
2026-05-07 03:46 43.78161 -79.27351 4253 ft 138 kts 37°
2026-05-07 03:46 43.78820 -79.26386 3961 ft 138 kts 38°
2026-05-07 03:47 43.79477 -79.25425 3684 ft 136 kts 38°
2026-05-07 03:47 43.80144 -79.24513 3616 ft 133 kts 28°
2026-05-07 03:47 43.80978 -79.24178 3626 ft 121 kts 349°
2026-05-07 03:47 43.81720 -79.24617 3633 ft 117 kts 315°
2026-05-07 03:48 43.82126 -79.25599 3631 ft 121 kts 288°
2026-05-07 03:48 43.82382 -79.26710 3623 ft 121 kts 289°
2026-05-07 03:48 43.82644 -79.27821 3622 ft 121 kts 289°
2026-05-07 03:48 43.82906 -79.28933 3622 ft 121 kts 289°
2026-05-07 03:49 43.83167 -79.30040 3621 ft 121 kts 289°
2026-05-07 03:49 43.83426 -79.31147 3622 ft 121 kts 289°
2026-05-07 03:49 43.83684 -79.32255 3622 ft 121 kts 289°
2026-05-07 03:49 43.83941 -79.33359 3621 ft 121 kts 289°
2026-05-07 03:50 43.84166 -79.34481 3615 ft 122 kts 279°
2026-05-07 03:50 43.83975 -79.35632 3623 ft 127 kts 246°
2026-05-07 03:50 43.83384 -79.36549 3616 ft 126 kts 235°
2026-05-07 03:50 43.82791 -79.37422 3617 ft 124 kts 235°
2026-05-07 03:51 43.82205 -79.38284 3619 ft 123 kts 235°
2026-05-07 03:51 43.81619 -79.39144 3621 ft 122 kts 234°
2026-05-07 03:51 43.81035 -79.40001 3622 ft 122 kts 234°
2026-05-07 03:51 43.80452 -79.40856 3621 ft 122 kts 235°
2026-05-07 03:52 43.79869 -79.41709 3620 ft 122 kts 235°
2026-05-07 03:52 43.79285 -79.42564 3620 ft 122 kts 234°
2026-05-07 03:52 43.78699 -79.43422 3616 ft 123 kts 234°
2026-05-07 03:52 43.78110 -79.44284 3587 ft 124 kts 234°
2026-05-07 03:53 43.77519 -79.45148 3484 ft 123 kts 234°
2026-05-07 03:53 43.76930 -79.46009 3346 ft 123 kts 233°
2026-05-07 03:53 43.76342 -79.46869 3187 ft 123 kts 233°
2026-05-07 03:53 43.75753 -79.47729 3022 ft 123 kts 233°
2026-05-07 03:54 43.75165 -79.48588 2853 ft 123 kts 232°
2026-05-07 03:54 43.74577 -79.49447 2680 ft 123 kts 232°
2026-05-07 03:54 43.73988 -79.50307 2509 ft 123 kts 231°
2026-05-07 03:54 43.73398 -79.51168 2336 ft 124 kts 231°
2026-05-07 03:55 43.72806 -79.52032 2162 ft 124 kts 230°
2026-05-07 03:55 43.72215 -79.52893 1985 ft 124 kts 230°
2026-05-07 03:55 43.71624 -79.53756 1816 ft 124 kts 230°
2026-05-07 03:55 43.71031 -79.54620 1645 ft 124 kts 230°
2026-05-07 03:56 43.70438 -79.55484 1459 ft 124 kts 229°
2026-05-07 03:56 43.69840 -79.56355 1281 ft 125 kts 229°
2026-05-07 03:56 43.69236 -79.57235 1091 ft 127 kts 229°
2026-05-07 03:56 43.68624 -79.58130 920 ft 129 kts 229°
2026-05-07 03:57 43.68001 -79.59034 764 ft 130 kts 227°
2026-05-07 03:57 43.67367 -79.59925 598 ft 130 kts 227°
2026-05-07 03:57 43.66781 -79.60774 565 ft 113 kts 228°
2026-05-07 03:57 43.66416 -79.61377 565 ft 30 kts 259°
2026-05-07 03:58 43.66388 -79.61552 564 ft 13 kts 245°
2026-05-07 03:58 43.66378 -79.61688 565 ft 16 kts 295°
2026-05-07 03:58 43.66460 -79.61803 562 ft 18 kts 316°
2026-05-07 03:58 43.66566 -79.61939 559 ft 23 kts 317°
2026-05-07 03:59 43.66665 -79.62010 567 ft 14 kts 18°
2026-05-07 03:59 43.66748 -79.61909 567 ft 18 kts 42°
2026-05-07 03:59 43.66848 -79.61782 567 ft 21 kts 43°
2026-05-07 03:59 43.66962 -79.61638 568 ft 24 kts 43°
2026-05-07 04:00 43.67074 -79.61496 570 ft 22 kts 42°
2026-05-07 04:00 43.67189 -79.61344 567 ft 21 kts 51°
2026-05-07 04:00 43.67278 -79.61264 561 ft 18 kts 333°
2026-05-07 04:01 43.67338 -79.61327 564 ft 15 kts 343°
2026-05-07 04:01 43.67447 -79.61281 565 ft 17 kts 14°
2026-05-07 04:01 43.67523 -79.61281 568 ft 7 kts 13°
2026-05-07 04:02 43.67588 -79.61262 567 ft 6 kts 11°
2026-05-07 04:02 43.67598 -79.61259 568 ft 0 kts 10°